Find Starlink 32451

NORAD ID: 61857 Int'l Des: 2024-202 Owner: SPXS Country: US Constellation: starlink operational
LEOCIRCULAR

Live Position

Loading 3D Globe...

About Starlink 32451

Description loading...

Upcoming Passes

Passes for default location (London). Set your location on the main map for personalized predictions.

Altitude History

Loading altitude history...

Two-Line Element Set

1 61857U 24202N 26104.16682759 -.00000159 00000-0 37214-5 0 9992
2 61857 43.0016 37.6132 0000554 193.1090 166.9748 15.27569935 80766
Epoch: Apr 14, 2026 • Age: 5 hours

Current Status

Altitude 481.8 km
Velocity 7.63 km/s
Sub-Earth Point 10.66°N, 139.22°W
Launch Date Nov 7, 2024
Age 1.4 years
Type internet

Technical Details

Classification Payload
Mass 730.00 kg
Dry Mass 700.00 kg
Total Mass 730.00 kg
Length 0.30 m
Diameter 4.10 m
Span 29.00 m
Shape Box + pan
Manufacturer SPXS
Bus Type Starlink V2M
Phase Status In Orbit
Owner/State SPXS/US

Most Searched